カタログに戻る

GAOFEN 5 01A

運用中科学SSO
NORAD 54640·PAYLOAD·🇨🇳 China

打ち上げ Dec 8, 2022 から Taiyuan Satellite Launch Center

Loading…

次のパス (今後24時間)

TLE

最新Source: Space-Track

元期: Sep 14, 2026, 23:04 UTC

1 54640U 22165A   26257.96151223  .00000301  00000-0  75915-4 0  9991
2 54640  98.2384 194.3798 0003079  86.8024 273.3527 14.57758844200490

AllMySatでGAOFEN 5 01Aをリアルタイム追跡

Download on the App Store